Location: Unspecified
(42.3650°N, 71.1030°W)
Time: 10:54:40
(UTC+00:00)

Tiros 1 - Pass Details

Date: 02 July 2024
Orbit: 624 x 656 km, 48.4° (Epoch: 20 July)

Event Time Altitude Azimuth Distance (km) Brightness Sun altitude
Rises 05:49:52 0° 296° (WNW) 2,905 10.6 -23.1°
Reaches altitude 10° 05:52:11 10° 298° (WNW) 1,998 9.8 -23.0°
Maximum altitude 05:56:47 73° 24° (NNE) 657 7.2 -22.8°
Drops below altitude 10° 06:01:23 10° 110° (ESE) 2,005 9.7 -22.5°
Sets 06:03:43 0° 112° (ESE) 2,916 10.5 -22.4°
